Location: Oshawa
(43.9000°N, 78.8670°W)
Time: 12:18:02
(UTC-04:00)

Cosmos 1707 Rocket - Visible Passes

Search period start: 18 April 2014 00:00
Search period end: 28 April 2014 00:00
Orbit: 607 x 634 km, 82.5° (Epoch: 17 April)

Date Brightness Start Highest point End Pass type
(mag) Time Alt. Az. Time Alt. Az. Time Alt. Az.
18 Apr 6.5 03:52:53 10° NNE 03:55:32 16° ENE 03:58:09 10° ESE visible
18 Apr 3.7 05:29:31 10° NNW 05:33:46 50° W 05:37:58 10° SSW visible
19 Apr 5.6 04:09:52 10° NNE 04:13:37 27° ENE 04:17:19 10° SE visible
19 Apr 4.5 05:47:45 10° NNW 05:51:26 27° W 05:55:06 10° SSW visible
20 Apr 4.5 04:27:19 10° N 04:31:35 49° ENE 04:35:47 10° SSE visible
21 Apr 3.5 04:45:03 10° N 04:49:27 87° W 04:53:47 10° S visible
22 Apr 6.3 03:26:10 10° NNE 03:29:02 17° ENE 03:31:52 10° ESE visible
22 Apr 3.8 05:03:01 10° NNW 05:07:12 45° W 05:11:20 10° SSW visible
23 Apr 5.4 03:43:15 10° NNE 03:47:06 29° ENE 03:50:53 10° SE visible
23 Apr 4.7 05:21:19 10° NW 05:24:51 25° W 05:28:22 10° SW visible
24 Apr 4.2 04:00:45 10° N 04:05:02 54° ENE 04:08:22 16° SSE visible
24 Apr 5.4 05:40:15 10° NW 05:42:25 14° W 05:44:34 10° WSW visible
25 Apr 6.6 02:43:47 10° ENE 02:44:22 10° ENE 02:44:56 10° ENE visible
25 Apr 3.4 04:18:30 10° N 04:22:53 79° W 04:25:24 25° S visible
26 Apr 6.0 02:59:28 10° NNE 03:02:31 18° ENE 03:05:22 11° ESE visible
26 Apr 4.0 04:36:31 10° NNW 04:40:37 41° W 04:42:31 26° SW visible
27 Apr 5.1 03:16:37 10° N 03:20:33 32° ENE 03:22:34 22° ESE visible
27 Apr 4.8 04:54:52 10° NW 04:58:15 22° W 04:59:43 19° WSW visible
